| time (UTC) | temp F | wind direction | speed MPH | gust MPH | rain 1hr in | rain 24hr in | rain mn in | humidity % | barometer mb |
| 20260904203703 | 91 | 120 | 0.0 | 0.0 | 0.00 | 0.05 | 0.05 | 53 | 1011.7 |
| 20260904203204 | 91 | 120 | 0.0 | 0.0 | 0.00 | 0.05 | 0.05 | 54 | 1011.7 |
| 20260904202703 | 91 | 120 | 0.0 | 0.0 | 0.00 | 0.05 | 0.05 | 55 | 1011.7 |
| 20260904201703 | 91 | 120 | 0.0 | 0.0 | 0.00 | 0.05 | 0.05 | 54 | 1012.0 |
| 20260904201205 | 90 | 120 | 0.0 | 0.0 | 0.00 | 0.05 | 0.05 | 53 | 1012.0 |
| 20260904200703 | 90 | 120 | 0.0 | 0.0 | 0.00 | 0.05 | 0.05 | 54 | 1012.1 |
| 20260904200204 | 90 | 120 | 0.0 | 0.0 | 0.00 | 0.05 | 0.05 | 56 | 1012.1 |
| 20260904195703 | 90 | 120 | 0.0 | 0.0 | 0.00 | 0.05 | 0.05 | 56 | 1012.2 |
| 20260904194703 | 89 | 120 | 0.0 | 0.0 | 0.00 | 0.05 | 0.05 | 57 | 1012.5 |
| 20260904194204 | 89 | 120 | 0.0 | 0.0 | 0.00 | 0.05 | 0.05 | 56 | 1012.6 |
| 20260904193704 | 89 | 120 | 0.0 | 0.0 | 0.00 | 0.05 | 0.05 | 57 | 1012.7 |
| 20260904193204 | 89 | 120 | 0.0 | 0.0 | 0.00 | 0.05 | 0.05 | 56 | 1012.7 |
| 20260904192703 | 89 | 120 | 0.0 | 0.0 | 0.00 | 0.05 | 0.05 | 59 | 1012.8 |
| 20260904191704 | 88 | 120 | 0.0 | 0.0 | 0.00 | 0.05 | 0.05 | 60 | 1013.0 |
| 20260904191204 | 87 | 120 | 0.0 | 0.0 | 0.00 | 0.05 | 0.05 | 60 | 1013.1 |
| 20260904190703 | 87 | 120 | 0.0 | 0.0 | 0.00 | 0.05 | 0.05 | 59 | 1013.2 |
| 20260904190204 | 87 | 120 | 0.0 | 0.0 | 0.00 | 0.05 | 0.05 | 59 | 1013.4 |
| 20260904185703 | 87 | 120 | 0.0 | 0.0 | 0.00 | 0.05 | 0.05 | 60 | 1013.5 |
| 20260904185204 | 86 | 120 | 0.0 | 0.0 | 0.00 | 0.05 | 0.05 | 60 | 1013.5 |
| 20260904184703 | 86 | 120 | 0.0 | 0.0 | 0.00 | 0.05 | 0.05 | 61 | 1013.5 |
| 20260904184204 | 86 | 120 | 0.0 | 0.0 | 0.00 | 0.05 | 0.05 | 62 | 1013.6 |
| 20260904183203 | 85 | 120 | 0.0 | 0.0 | 0.00 | 0.05 | 0.05 | 63 | 1013.8 |
| 20260904182704 | 84 | 120 | 0.0 | 0.0 | 0.00 | 0.05 | 0.05 | 64 | 1013.9 |
| 20260904182204 | 84 | 120 | 0.0 | 0.0 | 0.00 | 0.05 | 0.05 | 64 | 1013.9 |
| 20260904181703 | 83 | 120 | 0.0 | 0.0 | 0.00 | 0.05 | 0.05 | 66 | 1014.0 |
| 20260904181203 | 82 | 120 | 0.0 | 0.0 | 0.00 | 0.05 | 0.05 | 67 | 1014.1 |
| 20260904180703 | 81 | 120 | 0.0 | 0.0 | 0.00 | 0.05 | 0.05 | 71 | 1014.0 |
| 20260904180203 | 81 | 120 | 0.0 | 0.0 | 0.00 | 0.05 | 0.05 | 72 | 1013.9 |
| 20260904175704 | 80 | 120 | 0.0 | 0.0 | 0.04 | 0.05 | 0.05 | 73 | 1013.8 |
| 20260904175204 | 80 | 120 | 0.0 | 0.0 | 0.04 | 0.05 | 0.05 | 75 | 1013.8 |
| 20260904174703 | 79 | 120 | 0.0 | 0.0 | 0.05 | 0.05 | 0.05 | 74 | 1013.8 |
| 20260904174204 | 79 | 120 | 0.0 | 0.0 | 0.05 | 0.05 | 0.05 | 77 | 1013.9 |
| 20260904173704 | 79 | 120 | 0.0 | 0.0 | 0.05 | 0.05 | 0.05 | 81 | 1013.9 |
| 20260904173203 | 77 | 120 | 0.0 | 0.0 | 0.05 | 0.05 | 0.05 | 84 | 1014.1 |
| 20260904172704 | 77 | 120 | 0.0 | 0.0 | 0.05 | 0.05 | 0.05 | 84 | 1014.4 |
| 20260904172207 | 78 | 120 | 0.0 | 0.0 | 0.05 | 0.05 | 0.05 | 87 | 1014.6 |
| 20260904171204 | 77 | 120 | 0.0 | 0.0 | 0.05 | 0.05 | 0.05 | 90 | 1015.2 |
| 20260904170703 | 76 | 120 | 0.0 | 0.0 | 0.05 | 0.05 | 0.05 | 89 | 1015.5 |
| 20260904170203 | 77 | 120 | 0.0 | 0.0 | 0.05 | 0.05 | 0.05 | 86 | 1016.0 |
| 20260904165704 | 77 | 120 | 0.0 | 0.0 | 0.01 | 0.01 | 0.01 | 83 | 1016.4 |
| 20260904165204 | 78 | 120 | 0.0 | 0.0 | 0.01 | 0.01 | 0.01 | 80 | 1016.7 |
| 20260904164204 | 78 | 120 | 0.0 | 0.0 | 0.00 | 0.00 | 0.00 | 80 | 1016.7 |
| 20260904163703 | 78 | 120 | 0.0 | 0.0 | 0.00 | 0.00 | 0.00 | 79 | 1016.7 |
| 20260904162704 | 78 | 120 | 0.0 | 0.0 | 0.00 | 0.00 | 0.00 | 78 | 1016.2 |
| 20260904162203 | 77 | 120 | 0.0 | 0.0 | 0.00 | 0.00 | 0.00 | 78 | 1016.0 |
| 20260904161204 | 77 | 120 | 0.0 | 0.0 | 0.00 | 0.00 | 0.00 | 81 | 1016.1 |
| 20260904160703 | 77 | 120 | 0.0 | 0.0 | 0.00 | 0.00 | 0.00 | 83 | 1016.3 |
| 20260904160204 | 76 | 120 | 0.0 | 0.0 | 0.00 | 0.00 | 0.00 | 82 | 1016.2 |
| 20260904153703 | 79 | 120 | 0.0 | 0.0 | 0.00 | 0.06 | 0.00 | 76 | 1016.3 |
| 20260904153203 | 79 | 120 | 0.0 | 0.0 | 0.00 | 0.08 | 0.00 | 80 | 1016.2 |
| 20260904152704 | 78 | 120 | 0.0 | 0.0 | 0.00 | 0.09 | 0.00 | 80 | 1016.2 |
| 20260904151703 | 79 | 120 | 0.0 | 0.0 | 0.00 | 0.09 | 0.00 | 78 | 1016.2 |
| 20260904151204 | 79 | 120 | 0.0 | 0.0 | 0.00 | 0.09 | 0.00 | 78 | 1016.2 |
| 20260904150704 | 80 | 120 | 0.0 | 0.0 | 0.00 | 0.09 | 0.00 | 77 | 1016.3 |
| 20260904145704 | 80 | 120 | 0.0 | 0.0 | 0.00 | 0.09 | 0.00 | 76 | 1016.1 |
| 20260904145204 | 80 | 120 | 0.0 | 0.0 | 0.00 | 0.09 | 0.00 | 76 | 1015.8 |
| 20260904144704 | 80 | 120 | 0.0 | 0.0 | 0.00 | 0.09 | 0.00 | 78 | 1015.1 |
| 20260904144204 | 80 | 120 | 0.0 | 0.0 | 0.00 | 0.09 | 0.00 | 76 | 1015.0 |
| 20260904143703 | 80 | 120 | 0.0 | 0.0 | 0.00 | 0.09 | 0.00 | 80 | 1015.1 |
| 20260904143204 | 79 | 120 | 0.0 | 0.0 | 0.00 | 0.09 | 0.00 | 78 | 1015.1 |
| 20260904142704 | 79 | 120 | 0.0 | 0.0 | 0.00 | 0.09 | 0.00 | 81 | 1015.0 |
| 20260904142204 | 78 | 120 | 0.0 | 0.0 | 0.00 | 0.09 | 0.00 | 80 | 1014.9 |
| 20260904141204 | 77 | 120 | 0.0 | 0.0 | 0.00 | 0.09 | 0.00 | 83 | 1014.9 |
| 20260904140704 | 77 | 120 | 0.0 | 0.0 | 0.00 | 0.09 | 0.00 | 85 | 1015.0 |
| 20260904140203 | 77 | 120 | 0.0 | 0.0 | 0.00 | 0.09 | 0.00 | 84 | 1015.1 |
| 20260904135204 | 77 | 120 | 0.0 | 0.0 | 0.00 | 0.09 | 0.00 | 84 | 1015.0 |
| 20260904134704 | 77 | 120 | 0.0 | 0.0 | 0.00 | 0.09 | 0.00 | 84 | 1014.9 |
| 20260904134204 | 77 | 120 | 0.0 | 0.0 | 0.00 | 0.09 | 0.00 | 84 | 1014.9 |
| 20260904133703 | 77 | 120 | 0.0 | 0.0 | 0.00 | 0.09 | 0.00 | 85 | 1014.9 |
| 20260904133203 | 77 | 120 | 0.0 | 0.0 | 0.00 | 0.09 | 0.00 | 86 | 1014.9 |
| 20260904131703 | 76 | 120 | 0.0 | 0.0 | 0.00 | 0.09 | 0.00 | 86 | 1014.9 |
| 20260904131203 | 76 | 120 | 0.0 | 0.0 | 0.00 | 0.09 | 0.00 | 87 | 1014.7 |
| 20260904130704 | 76 | 120 | 0.0 | 0.0 | 0.00 | 0.09 | 0.00 | 87 | 1014.7 |
| 20260904130204 | 76 | 120 | 0.0 | 0.0 | 0.00 | 0.09 | 0.00 | 87 | 1014.5 |
| 20260904125704 | 75 | 120 | 0.0 | 0.0 | 0.00 | 0.09 | 0.00 | 87 | 1014.3 |
| 20260904125204 | 75 | 120 | 0.0 | 0.0 | 0.00 | 0.09 | 0.00 | 88 | 1014.2 |
| 20260904124703 | 75 | 120 | 0.0 | 0.0 | 0.00 | 0.09 | 0.00 | 87 | 1014.3 |
| 20260904124203 | 75 | 120 | 0.0 | 0.0 | 0.00 | 0.09 | 0.00 | 88 | 1014.2 |
| 20260904123203 | 75 | 120 | 0.0 | 0.0 | 0.00 | 0.09 | 0.00 | 89 | 1014.0 |
| 20260904122703 | 75 | 120 | 0.0 | 0.0 | 0.00 | 0.09 | 0.00 | 90 | 1014.0 |
| 20260904122204 | 75 | 120 | 0.0 | 0.0 | 0.00 | 0.09 | 0.00 | 89 | 1013.9 |
| 20260904121703 | 75 | 120 | 0.0 | 0.0 | 0.00 | 0.09 | 0.00 | 91 | 1013.9 |
| 20260904121203 | 75 | 120 | 0.0 | 0.0 | 0.00 | 0.09 | 0.00 | 92 | 1013.7 |
| 20260904120703 | 75 | 120 | 0.0 | 0.0 | 0.00 | 0.09 | 0.00 | 92 | 1013.5 |
| 20260904115703 | 75 | 120 | 0.0 | 0.0 | 0.00 | 0.09 | 0.00 | 92 | 1013.3 |
| 20260904115203 | 75 | 120 | 0.0 | 0.0 | 0.00 | 0.09 | 0.00 | 92 | 1013.2 |
| 20260904113703 | 75 | 120 | 0.0 | 0.0 | 0.00 | 0.09 | 0.00 | 93 | 1013.1 |
| 20260904113203 | 75 | 120 | 0.0 | 0.0 | 0.00 | 0.09 | 0.00 | 93 | 1013.0 |
| 20260904112704 | 75 | 120 | 0.0 | 0.0 | 0.00 | 0.09 | 0.00 | 92 | 1012.9 |
| 20260904112203 | 75 | 120 | 0.0 | 0.0 | 0.00 | 0.09 | 0.00 | 92 | 1012.6 |
| 20260904111703 | 75 | 120 | 0.0 | 0.0 | 0.00 | 0.09 | 0.00 | 92 | 1012.5 |
| 20260904111203 | 75 | 120 | 0.0 | 0.0 | 0.00 | 0.09 | 0.00 | 92 | 1012.3 |
| 20260904110704 | 75 | 120 | 0.0 | 0.0 | 0.00 | 0.09 | 0.00 | 92 | 1012.3 |
| 20260904110203 | 75 | 120 | 0.0 | 0.0 | 0.00 | 0.09 | 0.00 | 92 | 1012.3 |
| 20260904105203 | 75 | 120 | 0.0 | 0.0 | 0.00 | 0.09 | 0.00 | 92 | 1012.3 |
| 20260904104703 | 75 | 120 | 0.0 | 0.0 | 0.00 | 0.09 | 0.00 | 91 | 1012.3 |
| 20260904104203 | 76 | 120 | 0.0 | 0.0 | 0.00 | 0.09 | 0.00 | 91 | 1012.3 |
| 20260904103703 | 76 | 120 | 0.0 | 0.0 | 0.00 | 0.09 | 0.00 | 91 | 1012.3 |
| 20260904103204 | 76 | 120 | 0.0 | 0.0 | 0.00 | 0.09 | 0.00 | 91 | 1012.3 |
| 20260904101703 | 76 | 120 | 0.0 | 0.0 | 0.00 | 0.09 | 0.00 | 91 | 1012.2 |
| 20260904101203 | 76 | 120 | 0.0 | 0.0 | 0.00 | 0.09 | 0.00 | 90 | 1012.2 |
| 20260904100703 | 76 | 120 | 0.0 | 0.0 | 0.00 | 0.09 | 0.00 | 90 | 1012.2 |
| 20260904100204 | 77 | 120 | 0.0 | 0.0 | 0.00 | 0.09 | 0.00 | 89 | 1012.1 |
| 20260904094704 | 77 | 120 | 0.0 | 0.0 | 0.00 | 0.09 | 0.00 | 88 | 1012.0 |
| 20260904094203 | 77 | 120 | 0.0 | 0.0 | 0.00 | 0.09 | 0.00 | 88 | 1012.0 |
| 20260904093203 | 78 | 120 | 0.0 | 0.0 | 0.00 | 0.09 | 0.00 | 88 | 1011.8 |
| 20260904092704 | 78 | 120 | 0.0 | 0.0 | 0.00 | 0.09 | 0.00 | 88 | 1011.8 |
| 20260904092204 | 78 | 120 | 0.0 | 0.0 | 0.00 | 0.09 | 0.00 | 89 | 1011.8 |
| 20260904091703 | 77 | 120 | 0.0 | 0.0 | 0.00 | 0.09 | 0.00 | 89 | 1011.8 |
| 20260904091203 | 77 | 120 | 0.0 | 0.0 | 0.00 | 0.09 | 0.00 | 89 | 1011.9 |
| 20260904090704 | 77 | 120 | 0.0 | 0.0 | 0.00 | 0.09 | 0.00 | 90 | 1011.8 |
| 20260904090203 | 77 | 120 | 0.0 | 0.0 | 0.00 | 0.09 | 0.00 | 91 | 1011.8 |
| 20260904085703 | 77 | 120 | 0.0 | 0.0 | 0.00 | 0.09 | 0.00 | 91 | 1011.7 |
| 20260904085204 | 77 | 120 | 0.0 | 0.0 | 0.00 | 0.09 | 0.00 | 92 | 1011.7 |
| 20260904084703 | 76 | 120 | 0.0 | 0.0 | 0.00 | 0.09 | 0.00 | 93 | 1011.6 |
| 20260904084203 | 76 | 120 | 0.0 | 0.0 | 0.00 | 0.09 | 0.00 | 92 | 1011.9 |
| 20260904083703 | 76 | 120 | 0.0 | 0.0 | 0.00 | 0.09 | 0.00 | 92 | 1012.2 |
| 20260904083203 | 76 | 120 | 0.0 | 0.0 | 0.00 | 0.09 | 0.00 | 92 | 1012.4 |
| 20260904082704 | 76 | 120 | 0.0 | 0.0 | 0.00 | 0.09 | 0.00 | 91 | 1012.7 |
| 20260904082203 | 76 | 120 | 0.0 | 0.0 | 0.00 | 0.09 | 0.00 | 91 | 1012.8 |
| 20260904081703 | 76 | 120 | 0.0 | 0.0 | 0.00 | 0.09 | 0.00 | 91 | 1012.9 |
| 20260904081203 | 76 | 120 | 0.0 | 0.0 | 0.00 | 0.09 | 0.00 | 90 | 1012.8 |
| 20260904080704 | 76 | 120 | 0.0 | 0.0 | 0.00 | 0.09 | 0.00 | 90 | 1012.7 |
| 20260904080204 | 76 | 120 | 0.0 | 0.0 | 0.00 | 0.09 | 0.00 | 90 | 1012.6 |
| 20260904075203 | 77 | 120 | 0.0 | 0.0 | 0.00 | 0.09 | 0.00 | 89 | 1012.6 |
| 20260904074704 | 77 | 120 | 0.0 | 0.0 | 0.00 | 0.09 | 0.00 | 88 | 1012.5 |
| 20260904074204 | 77 | 120 | 0.0 | 0.0 | 0.00 | 0.09 | 0.00 | 88 | 1012.3 |
| 20260904072704 | 77 | 120 | 0.0 | 0.0 | 0.00 | 0.09 | 0.00 | 88 | 1012.1 |
| 20260904072204 | 77 | 120 | 0.0 | 0.0 | 0.00 | 0.09 | 0.00 | 88 | 1012.2 |
| 20260904071703 | 77 | 120 | 0.0 | 0.0 | 0.00 | 0.09 | 0.00 | 88 | 1012.2 |
| 20260904071203 | 77 | 120 | 0.0 | 0.0 | 0.00 | 0.09 | 0.00 | 88 | 1012.1 |
| 20260904070204 | 77 | 120 | 0.0 | 0.0 | 0.00 | 0.09 | 0.00 | 88 | 1012.1 |
| 20260904065703 | 77 | 120 | 0.0 | 0.0 | 0.00 | 0.09 | 0.00 | 88 | 1012.0 |
| 20260904065203 | 77 | 120 | 0.0 | 0.0 | 0.00 | 0.09 | 0.00 | 88 | 1012.1 |
| 20260904064704 | 77 | 120 | 0.0 | 0.0 | 0.00 | 0.09 | 0.00 | 89 | 1012.0 |
| 20260904064204 | 77 | 120 | 0.0 | 0.0 | 0.00 | 0.09 | 0.00 | 89 | 1012.2 |
| 20260904063203 | 76 | 120 | 0.0 | 0.0 | 0.00 | 0.09 | 0.00 | 90 | 1012.4 |
| 20260904062704 | 76 | 120 | 0.0 | 0.0 | 0.00 | 0.09 | 0.00 | 90 | 1012.5 |
| 20260904062204 | 76 | 120 | 0.0 | 0.0 | 0.00 | 0.09 | 0.00 | 91 | 1012.6 |
| 20260904061703 | 76 | 120 | 0.0 | 0.0 | 0.00 | 0.09 | 0.00 | 91 | 1012.7 |
| 20260904061204 | 76 | 120 | 0.0 | 0.0 | 0.00 | 0.09 | 0.00 | 91 | 1012.7 |
| 20260904060704 | 76 | 120 | 0.0 | 0.0 | 0.00 | 0.09 | 0.00 | 91 | 1012.9 |
| 20260904060204 | 76 | 120 | 0.0 | 0.0 | 0.00 | 0.09 | 0.00 | 91 | 1013.0 |
| 20260904055704 | 76 | 120 | 0.0 | 0.0 | 0.00 | 0.09 | 0.00 | 91 | 1013.0 |
| 20260904054704 | 76 | 120 | 0.0 | 0.0 | 0.00 | 0.09 | 0.00 | 91 | 1013.3 |
| 20260904054204 | 75 | 120 | 0.0 | 0.0 | 0.00 | 0.09 | 0.00 | 91 | 1013.4 |
| 20260904053704 | 75 | 120 | 0.0 | 0.0 | 0.00 | 0.09 | 0.00 | 92 | 1013.4 |
| 20260904053203 | 75 | 120 | 0.0 | 0.0 | 0.00 | 0.09 | 0.00 | 90 | 1013.5 |
| 20260904052704 | 75 | 120 | 0.0 | 0.0 | 0.00 | 0.09 | 0.00 | 90 | 1013.5 |
| 20260904052204 | 76 | 120 | 0.0 | 0.0 | 0.00 | 0.09 | 0.00 | 91 | 1013.5 |
| 20260904051704 | 76 | 120 | 0.0 | 0.0 | 0.00 | 0.09 | 0.00 | 91 | 1013.5 |
| 20260904051203 | 76 | 120 | 0.0 | 0.0 | 0.00 | 0.09 | 0.00 | 91 | 1013.5 |
| 20260904050703 | 76 | 120 | 0.0 | 0.0 | 0.00 | 0.09 | 0.00 | 91 | 1013.4 |
| 20260904050204 | 76 | 120 | 0.0 | 0.0 | 0.00 | 0.09 | 0.00 | 91 | 1013.3 |
| 20260904045203 | 76 | 120 | 0.0 | 0.0 | 0.00 | 0.09 | 0.09 | 90 | 1013.4 |
| 20260904044704 | 76 | 120 | 0.0 | 0.0 | 0.00 | 0.09 | 0.09 | 90 | 1013.3 |
| 20260904044204 | 76 | 120 | 0.0 | 0.0 | 0.00 | 0.09 | 0.09 | 90 | 1013.3 |
| 20260904043704 | 76 | 120 | 0.0 | 0.0 | 0.00 | 0.09 | 0.09 | 90 | 1013.3 |
| 20260904043203 | 76 | 120 | 0.0 | 0.0 | 0.00 | 0.09 | 0.09 | 90 | 1013.4 |
| 20260904042204 | 76 | 120 | 0.0 | 0.0 | 0.00 | 0.09 | 0.09 | 89 | 1013.3 |
| 20260904041703 | 76 | 120 | 0.0 | 0.0 | 0.00 | 0.09 | 0.09 | 89 | 1013.3 |
| 20260904040704 | 76 | 120 | 0.0 | 0.0 | 0.00 | 0.09 | 0.09 | 89 | 1013.4 |
| 20260904035204 | 76 | 120 | 0.0 | 0.0 | 0.00 | 0.09 | 0.09 | 88 | 1013.6 |
| 20260904034703 | 76 | 120 | 0.0 | 0.0 | 0.00 | 0.09 | 0.09 | 88 | 1013.7 |
| 20260904034204 | 76 | 120 | 0.0 | 0.0 | 0.00 | 0.09 | 0.09 | 87 | 1013.8 |
| 20260904033204 | 76 | 120 | 0.0 | 0.0 | 0.00 | 0.09 | 0.09 | 86 | 1013.7 |
| 20260904032704 | 76 | 120 | 0.0 | 0.0 | 0.00 | 0.09 | 0.09 | 86 | 1013.7 |
| 20260904032204 | 76 | 120 | 0.0 | 0.0 | 0.00 | 0.09 | 0.09 | 86 | 1013.6 |
| 20260904031704 | 76 | 120 | 0.0 | 0.0 | 0.00 | 0.09 | 0.09 | 87 | 1013.7 |
| 20260904031204 | 76 | 120 | 0.0 | 0.0 | 0.00 | 0.09 | 0.09 | 87 | 1013.7 |
| 20260904030703 | 76 | 120 | 0.0 | 0.0 | 0.00 | 0.09 | 0.09 | 87 | 1013.7 |
| 20260904030204 | 76 | 120 | 0.0 | 0.0 | 0.00 | 0.09 | 0.09 | 86 | 1013.7 |
| 20260904024204 | 77 | 120 | 0.0 | 0.0 | 0.00 | 0.09 | 0.09 | 84 | 1013.8 |
| 20260904023704 | 77 | 120 | 0.0 | 0.0 | 0.00 | 0.09 | 0.09 | 85 | 1013.8 |
| 20260904022704 | 77 | 120 | 0.0 | 0.0 | 0.00 | 0.09 | 0.09 | 84 | 1013.8 |
| 20260904022204 | 77 | 120 | 0.0 | 0.0 | 0.00 | 0.09 | 0.09 | 84 | 1013.7 |
| 20260904021705 | 77 | 120 | 0.0 | 0.0 | 0.00 | 0.09 | 0.09 | 84 | 1013.6 |
| 20260904021204 | 77 | 120 | 0.0 | 0.0 | 0.00 | 0.09 | 0.09 | 84 | 1013.4 |
| 20260904020704 | 77 | 120 | 0.0 | 0.0 | 0.00 | 0.09 | 0.09 | 84 | 1013.4 |
| 20260904020204 | 77 | 120 | 0.0 | 0.0 | 0.00 | 0.09 | 0.09 | 82 | 1013.4 |
| 20260904015704 | 77 | 120 | 0.0 | 0.0 | 0.00 | 0.09 | 0.09 | 82 | 1013.4 |
| 20260904015204 | 77 | 120 | 0.0 | 0.0 | 0.00 | 0.09 | 0.09 | 82 | 1013.4 |
| 20260904014204 | 78 | 120 | 0.0 | 0.0 | 0.00 | 0.09 | 0.09 | 81 | 1013.3 |
| 20260904013703 | 78 | 120 | 0.0 | 0.0 | 0.00 | 0.09 | 0.09 | 80 | 1013.1 |
| 20260904013204 | 78 | 120 | 0.0 | 0.0 | 0.00 | 0.09 | 0.09 | 81 | 1013.0 |
| 20260904012704 | 78 | 120 | 0.0 | 0.0 | 0.00 | 0.09 | 0.09 | 81 | 1013.0 |
| 20260904011203 | 79 | 120 | 0.0 | 0.0 | 0.00 | 0.09 | 0.09 | 78 | 1012.8 |
| 20260904010703 | 79 | 120 | 0.0 | 0.0 | 0.00 | 0.09 | 0.09 | 76 | 1012.8 |
| 20260904010204 | 79 | 120 | 0.0 | 0.0 | 0.00 | 0.09 | 0.09 | 76 | 1012.9 |
| 20260904005703 | 79 | 120 | 0.0 | 0.0 | 0.00 | 0.09 | 0.09 | 77 | 1012.8 |
| 20260904005204 | 79 | 120 | 0.0 | 0.0 | 0.00 | 0.09 | 0.09 | 75 | 1012.7 |
| 20260904004703 | 80 | 120 | 0.0 | 0.0 | 0.00 | 0.09 | 0.09 | 74 | 1012.6 |
| 20260904004203 | 80 | 120 | 0.0 | 0.0 | 0.00 | 0.09 | 0.09 | 72 | 1012.4 |
| 20260904003203 | 81 | 120 | 0.0 | 0.0 | 0.00 | 0.09 | 0.09 | 70 | 1012.1 |
| 20260904002704 | 81 | 120 | 0.0 | 0.0 | 0.00 | 0.09 | 0.09 | 70 | 1012.1 |
| 20260904002204 | 81 | 120 | 0.0 | 0.0 | 0.00 | 0.09 | 0.09 | 69 | 1012.0 |
| 20260904001703 | 81 | 120 | 0.0 | 0.0 | 0.00 | 0.09 | 0.09 | 70 | 1012.0 |
| 20260904001204 | 81 | 120 | 0.0 | 0.0 | 0.00 | 0.09 | 0.09 | 68 | 1012.0 |
| 20260904000703 | 81 | 120 | 0.0 | 0.0 | 0.00 | 0.09 | 0.09 | 68 | 1012.0 |
| 20260904000204 | 82 | 120 | 0.0 | 0.0 | 0.00 | 0.09 | 0.09 | 68 | 1012.0 |
| 20260903235203 | 82 | 120 | 0.0 | 0.0 | 0.00 | 0.09 | 0.09 | 68 | 1012.2 |
| 20260903234703 | 82 | 120 | 0.0 | 0.0 | 0.00 | 0.09 | 0.09 | 67 | 1012.2 |
| 20260903234204 | 83 | 120 | 0.0 | 0.0 | 0.00 | 0.09 | 0.09 | 67 | 1012.1 |
| 20260903233703 | 83 | 120 | 0.0 | 0.0 | 0.00 | 0.09 | 0.09 | 66 | 1012.1 |
| 20260903233203 | 83 | 120 | 0.0 | 0.0 | 0.00 | 0.09 | 0.09 | 65 | 1012.2 |
| 20260903232703 | 83 | 120 | 0.0 | 0.0 | 0.00 | 0.09 | 0.09 | 66 | 1012.2 |
| 20260903231703 | 83 | 120 | 0.0 | 0.0 | 0.00 | 0.09 | 0.09 | 67 | 1012.2 |
| 20260903231203 | 84 | 120 | 0.0 | 0.0 | 0.00 | 0.09 | 0.09 | 65 | 1012.2 |
| 20260903225703 | 84 | 120 | 0.0 | 0.0 | 0.00 | 0.09 | 0.09 | 64 | 1012.1 |
| 20260903225203 | 84 | 120 | 0.0 | 0.0 | 0.00 | 0.09 | 0.09 | 65 | 1012.2 |
| 20260903224703 | 84 | 120 | 0.0 | 0.0 | 0.00 | 0.09 | 0.09 | 68 | 1012.2 |
| 20260903223704 | 85 | 120 | 0.0 | 0.0 | 0.00 | 0.09 | 0.09 | 69 | 1012.3 |
| 20260903223204 | 85 | 120 | 0.0 | 0.0 | 0.00 | 0.09 | 0.09 | 69 | 1012.3 |
| 20260903222203 | 85 | 120 | 0.0 | 0.0 | 0.00 | 0.09 | 0.09 | 68 | 1012.4 |
| 20260903221703 | 85 | 120 | 0.0 | 0.0 | 0.00 | 0.09 | 0.09 | 68 | 1012.4 |
| 20260903221204 | 86 | 120 | 0.0 | 0.0 | 0.00 | 0.09 | 0.09 | 66 | 1012.5 |
| 20260903220204 | 86 | 120 | 0.0 | 0.0 | 0.00 | 0.09 | 0.09 | 66 | 1012.5 |
| 20260903215703 | 86 | 120 | 0.0 | 0.0 | 0.00 | 0.09 | 0.09 | 67 | 1012.6 |
| 20260903215204 | 86 | 120 | 0.0 | 0.0 | 0.00 | 0.09 | 0.09 | 66 | 1012.6 |
| 20260903214704 | 86 | 120 | 0.0 | 0.0 | 0.00 | 0.09 | 0.09 | 67 | 1012.6 |
| 20260903214203 | 86 | 120 | 0.0 | 0.0 | 0.00 | 0.09 | 0.09 | 66 | 1012.6 |
| 20260903213703 | 86 | 120 | 0.0 | 0.0 | 0.00 | 0.09 | 0.09 | 66 | 1012.6 |
| 20260903212203 | 86 | 120 | 0.0 | 0.0 | 0.00 | 0.09 | 0.09 | 65 | 1012.7 |
| 20260903211204 | 86 | 120 | 0.0 | 0.0 | 0.00 | 0.09 | 0.09 | 64 | 1012.7 |
| 20260903210204 | 87 | 120 | 0.0 | 0.0 | 0.00 | 0.09 | 0.09 | 62 | 1012.9 |
| 20260903205704 | 87 | 120 | 0.0 | 0.0 | 0.00 | 0.09 | 0.09 | 63 | 1012.9 |
| 20260903205204 | 87 | 120 | 0.0 | 0.0 | 0.00 | 0.09 | 0.09 | 62 | 1013.0 |